Погода в Оренбургском

Россия / Хабаровский край     46°47′52″N   134°14′20″E
темп.,
°C
ветер,
м/с
пор.,
м/с
влажн.,
%
обл.,
%
осадки,
мм/ч
давл.,
гПа
погр.,
м
6 марта, сб
сб601:00−23зсз312860 0.0 1030465
04:00−24з39883 0.0 1032249
07:00−25з25890 0.0 1034105
10:00−19зсз48820 0.0 1035825
13:00−15з578099 0.0 1034995
16:00−13зсз587999 0.1 10321075
19:00−17зюз2489100 0.0 103273
22:00−19юз229160 0.0 103320
7 марта, вс
вс701:00−19ююз22930 0.0 103223
04:00−20ююз12960 0.0 103220
07:00−19ю129357 0.0 103120
10:00−15ю239078 0.0 1030220
13:00−10ююз358392 0.0 1027623
16:00−8ююз357996 0.0 1025864
19:00−11ю228995 0.0 102425
22:00−12юз129495 0.1 102524
8 марта, пн
пн801:00−14зюз119486 0.0 102521
04:00−15з019684 0.0 102620
07:00−16зюз119675 0.0 102820
10:00−10зюз138641 0.0 1029257
13:00−6зюз24750 0.0 1029734
16:00−4зюз24712 0.0 1027876
19:00−8ю23905 0.0 102651
22:00−12ю23932 0.0 102633
9 марта, вт
вт901:00−13ююв23920 0.0 102339
04:00−12ююв339230 0.0 102082
07:00−13ююв339067 0.0 101774
10:00−6ю5118535 0.0 1014527
13:000ююз5119053 0.0 10101103
16:00+1з5118976 0.2 10091253
19:00−3з5119597 0.6 1011607
22:00−5зсз6158398 0.9 1014828
10 марта, ср
ср1001:00−8сз5158270 0.0 1017782
04:00−9зсз4158635 0.0 1019658
07:00−10сз414870 0.0 1023612
10:00−7сз498312 0.0 1025696
13:00−4сз247867 0.0 1026850
16:00−3з237684 0.1 1026865
19:00−7ююз128550 0.0 102621
22:00−9ююв128553 0.0 102721